[[{"header":{"parameterUnit":"m.s-1","parameterCategory":2,"la1":30.2991,"la2":30.254,"lo1":-89.0895,"lo2":-89.0444,"dy":0.0017,"dx":0.0017,"nx":28,"ny":28,"refTime":"2025-11-16T09:00:00:Z","depth":"0","parameterNumber":2,"parameterNumberName":"U-component_of_CURRENTS"},"data":[0,0,0,0,0,0,0,0,0,0,0,0,0,0,0,0,0,0,0,0,0,0,0,0,0,0,0,0,0,0,0,0,0,0,0,0,0,0,0,0,0,0,0,0,0,0,0,0,0,0,0,0,0,0,0,0,0,0,0.3964,0.3964,0,0.3948,0.3947,0.3946,0.3844,0.3843,0.3841,0.384,0.3751,0.375,0.3749,0,0,0,0,0,0,0,0,0,0,0,0,0,0.3878,0.388,0.3964,0.3965,0.3965,0.3948,0.3947,0.3946,0.3845,0.3843,0.3841,0.3839,0.3751,0.375,0.3749,0,0,0,0,0,0,0,0,0,0,0,0,0,0.3885,0.388,0.3964,0.392,0.3917,0.3948,0.3947,0.3945,0.3845,0.3843,0.384,0.3838,0.3751,0.375,0.3748,0.3785,0,0,0.3744,0.3743,0,0,0,0,0,0,0,0,0.3884,0.3886,0.3926,0.3924,0.392,0.3905,0.3884,0.3892,0.3846,0.3862,0.384,0.3837,0.3804,0.3798,0.3786,0.3781,0.3777,0.3744,0.3743,0.3742,0.3742,0,0,0,0,0,0,0,0.3884,0.3887,0.3947,0.3927,0.3924,0.3893,0.389,0.3885,0.3836,0.386,0.3855,0.387,0.38,0.3788,0.3784,0.3776,0.3744,0.3743,0.3742,0.3741,0.3866,0.387,0,0,0,0,0,0,0.3911,0.3887,0.3948,0.3948,0.3908,0.3897,0.3894,0.3904,0.3838,0.3829,0.3873,0.3866,0.3792,0.3785,0.378,0.3867,0.3742,0.3741,0.374,0.3862,0.3867,0.3871,0,0,0,0,0,0,0.3909,0.3917,0.3949,0.3925,0.3928,0.3902,0.3913,0.3905,0.3891,0.385,0.3837,0.3869,0.379,0.3782,0.3799,0.3861,0.374,0.3739,0.3857,0.3863,0.3869,0.4011,0,0,0,0,0,0,0.3907,0.3916,0.3934,0.3927,0.3931,0.3985,0.3916,0.3906,0.3909,0.39,0.3844,0.3832,0.3787,0.3802,0.3798,0.3857,0.3738,0.3851,0.386,0.3867,0.4001,0.4022,0.4039,0,0,0,0,0,0.3903,0.3942,0.3935,0.3943,0.3956,0.3988,0.3987,0.3953,0.3912,0.3926,0.3894,0.3834,0.3849,0.3804,0.3798,0.3858,0.3848,0.3857,0.3866,0.3993,0.4018,0.4038,0,0,0,0,0,0,0.3921,0.3937,0.3928,0.3971,0.3989,0.3975,0.3995,0.3967,0.3951,0.3939,0.3875,0.3865,0.3909,0.3875,0.3827,0.3924,0.3844,0.3853,0.3943,0.3965,0.3984,0.3952,0.3737,0,0,0,0,0,0.3939,0.3965,0.398,0.4018,0.4032,0.4014,0.4023,0.4004,0.3994,0.3981,0.3947,0.3931,0.3948,0.3945,0.3947,0.3991,0.398,0.4034,0.4053,0.4069,0.4045,0.4112,0.4134,0.3902,0.3902,0.3902,0,0,0.3957,0.3974,0.3987,0.4024,0.403,0.4057,0.4011,0.404,0.4054,0.398,0.399,0.3993,0.3978,0.4032,0.4049,0.4004,0.4142,0.4081,0.4094,0.406,0.4124,0.4146,0.4166,0.3908,0.3907,0.3906,0,0,0.4005,0.4026,0.4056,0.4078,0.411,0.4106,0.4121,0.412,0.4113,0.4139,0.4108,0.4146,0.4141,0.4159,0.4163,0.4291,0.4244,0.4306,0.4364,0.4433,0.4451,0.4467,0.4525,0.4545,0.431,0.4311,0.4311,0,0.4027,0.4059,0.4075,0.4111,0.413,0.4131,0.4159,0.4173,0.4176,0.4186,0.4158,0.4206,0.4201,0.4276,0.4325,0.433,0.4352,0.4275,0.4455,0.447,0.4483,0.4539,0.4558,0.4319,0.4318,0.4317,0.4316,0,0.4085,0.4113,0.4143,0.4177,0.4206,0.4242,0.4265,0.4292,0.4284,0.4286,0.4352,0.4365,0.438,0.4424,0.4403,0.452,0.4502,0.4474,0.4387,0.4515,0.4566,0.4584,0.433,0.4327,0.4325,0.4323,0,0,0.4098,0.4166,0.4167,0.418,0.4237,0.4254,0.4318,0.4359,0.4378,0.4418,0.4448,0.4528,0.4526,0.4534,0.4549,0.4613,0.476,0.4587,0.4587,0.4627,0.4913,0.4943,0.4964,0.4766,0.4769,0.4771,0.4925,0,0.4125,0.4183,0.4214,0.4257,0.4283,0.4317,0.4362,0.4407,0.4436,0.4475,0.4532,0.4566,0.4574,0.459,0.467,0.4719,0.4807,0.472,0.4796,0.4798,0.4794,0.4986,0.4868,0.4998,0.4942,0.4945,0.4947,0,0.4141,0.4177,0.422,0.4268,0.4282,0.4311,0.4363,0.4407,0.4489,0.4514,0.4582,0.4605,0.4715,0.4692,0.486,0.4803,0.4871,0.4917,0.4923,0.4897,0.486,0.4855,0.5031,0.4807,0.4973,0.4971,0.4969,0,0.4092,0.4165,0.4188,0.4208,0.4278,0.4299,0.4335,0.441,0.4439,0.4534,0.4557,0.468,0.4719,0.4839,0.4937,0.4908,0.5107,0.5075,0.5175,0.5177,0.5059,0.5046,0.5001,0.5211,0.5211,0.5211,0.521,0,0.4081,0.4091,0.4162,0.4169,0.4186,0.4256,0.428,0.434,0.4422,0.4458,0.456,0.4612,0.4755,0.4872,0.4972,0.514,0.5147,0.5219,0.5237,0.5114,0.5104,0.4884,0.4773,0.5216,0.5215,0.5214,0.5213,0,0.4001,0.4056,0.4073,0.4142,0.4156,0.416,0.4223,0.4249,0.4341,0.4394,0.4423,0.4575,0.4747,0.4898,0.5091,0.5175,0.5191,0.5383,0.5231,0.5229,0.512,0.5023,0.4879,0.4753,0.5538,0.554,0.5542,0,0.3962,0.3968,0.4018,0.4018,0.404,0.4064,0.4083,0.4185,0.4223,0.4367,0.4391,0.4572,0.471,0.5023,0.5218,0.5448,0.5226,0.5439,0.5377,0.5132,0.5035,0.4817,0.4703,0.5291,0.529,0.529,0.5289,0,0.388,0.3895,0.3912,0.3919,0.3928,0.3939,0.3985,0.4011,0.4136,0.4211,0.4339,0.4469,0.479,0.4977,0.5279,0.5414,0.5161,0.544,0.5216,0.4881,0.4606,0.4485,0.5157,0.5285,0.5286,0.5286,0.5286,0.5286,0.3804,0.3791,0.3818,0.381,0.3823,0.3828,0.3814,0.3892,0.396,0.4058,0.4231,0.4377,0.4664,0.5105,0.5213,0.524,0.5183,0.5118,0.504,0.4854,0.4661,0.5341,0.5468,0.5469,0.547,0.5471,0.5472,0,0.3712,0.3713,0.371,0.3706,0.368,0.3719,0.3751,0.3734,0.3786,0.3936,0.4051,0.4264,0.4503,0.4724,0.4905,0.4798,0.4655,0.4655,0.4266,0.4193,0.4834,0.4749,0.4687,0.4687,0.4688,0.4688,0.4688,0.4688,0.366,0.363,0.3635,0.3571,0.3561,0.3503,0.3502,0.3506,0.3587,0.3651,0.3725,0.3844,0.4065,0.429,0.4255,0.425,0.3884,0.3814,0.3725,0.4106,0.4139,0.417,0.406,0.3855,0.3854,0.2952,0.2945,0.2939]},{"header":{"parameterUnit":"m.s-1","parameterCategory":2,"la1":30.2991,"la2":30.254,"lo1":-89.0895,"lo2":-89.0444,"dy":0.0017,"dx":0.0017,"nx":28,"ny":28,"refTime":"2025-11-16T09:00:00:Z","depth":"0","parameterNumber":3,"parameterNumberName":"V-component_of_CURRENTS"},"data":[0,0,0,0,0,0,0,0,0,0,0,0,0,0,0,0,0,0,0,0,0,0,0,0,0,0,0,0,0,0,0,0,0,0,0,0,0,0,0,0,0,0,0,0,0,0,0,0,0,0,0,0,0,0,0,0,0,0,-0.0717,-0.0717,0,-0.0749,-0.0749,-0.075,-0.0797,-0.0798,-0.0799,-0.08,-0.0891,-0.0892,-0.0893,0,0,0,0,0,0,0,0,0,0,0,0,0,-0.0684,-0.0685,-0.0717,-0.0717,-0.0718,-0.0749,-0.0749,-0.075,-0.0797,-0.0798,-0.0799,-0.0801,-0.089,-0.0892,-0.0894,0,0,0,0,0,0,0,0,0,0,0,0,0,-0.0704,-0.0685,-0.0717,-0.0746,-0.0749,-0.0749,-0.0749,-0.075,-0.0797,-0.0798,-0.08,-0.0801,-0.0889,-0.0892,-0.0894,-0.0879,0,0,-0.0901,-0.0902,0,0,0,0,0,0,0,0,-0.0703,-0.0705,-0.0741,-0.0744,-0.0748,-0.0772,-0.0771,-0.0796,-0.0796,-0.0777,-0.08,-0.0802,-0.0856,-0.0861,-0.0861,-0.0883,-0.0887,-0.0901,-0.0902,-0.0903,-0.0904,0,0,0,0,0,0,0,-0.0702,-0.0704,-0.0728,-0.0742,-0.0746,-0.0754,-0.0758,-0.0776,-0.0808,-0.0779,-0.0783,-0.0788,-0.0858,-0.0859,-0.0864,-0.0888,-0.0901,-0.0903,-0.0904,-0.0905,-0.0866,-0.0864,0,0,0,0,0,0,-0.07,-0.0703,-0.0727,-0.0729,-0.073,-0.0754,-0.0758,-0.0761,-0.0807,-0.0815,-0.0787,-0.079,-0.0854,-0.0861,-0.0867,-0.0826,-0.0903,-0.0905,-0.0907,-0.0868,-0.0865,-0.0863,0,0,0,0,0,0,-0.0699,-0.0701,-0.0726,-0.0718,-0.0722,-0.0753,-0.0756,-0.0761,-0.0766,-0.0813,-0.0822,-0.0787,-0.0856,-0.0864,-0.0867,-0.0831,-0.0906,-0.0909,-0.0871,-0.0867,-0.0864,-0.076,0,0,0,0,0,0,-0.0697,-0.0701,-0.0698,-0.0718,-0.0723,-0.0718,-0.0755,-0.0761,-0.0768,-0.0773,-0.0815,-0.0825,-0.0857,-0.0863,-0.0869,-0.0836,-0.091,-0.0874,-0.0869,-0.0865,-0.0767,-0.0754,-0.0742,0,0,0,0,0,-0.0696,-0.0686,-0.0697,-0.07,-0.0719,-0.0718,-0.072,-0.0746,-0.0766,-0.0758,-0.0779,-0.0824,-0.0838,-0.0863,-0.087,-0.0837,-0.0876,-0.0871,-0.0866,-0.0772,-0.0756,-0.0743,0,0,0,0,0,0,-0.0671,-0.0691,-0.0704,-0.0701,-0.0706,-0.0726,-0.0722,-0.0739,-0.0748,-0.0753,-0.08,-0.081,-0.0798,-0.0825,-0.0851,-0.0808,-0.0861,-0.0857,-0.0788,-0.0773,-0.0761,-0.0761,-0.0912,0,0,0,0,0,-0.0662,-0.0661,-0.0679,-0.0674,-0.0676,-0.0696,-0.0699,-0.0712,-0.0726,-0.0732,-0.0759,-0.0776,-0.0778,-0.0784,-0.0796,-0.0776,-0.0817,-0.0756,-0.0743,-0.0733,-0.0735,-0.0751,-0.0741,-0.0845,-0.0845,-0.0845,0,0,-0.0651,-0.0662,-0.0661,-0.0668,-0.0676,-0.0661,-0.0701,-0.0697,-0.0678,-0.074,-0.0722,-0.0741,-0.0764,-0.0738,-0.0735,-0.076,-0.0722,-0.0726,-0.0717,-0.0725,-0.0745,-0.0735,-0.0726,-0.0841,-0.0842,-0.0843,0,0,-0.0624,-0.0635,-0.0624,-0.0622,-0.0627,-0.0632,-0.0628,-0.0639,-0.064,-0.0622,-0.0653,-0.0645,-0.0659,-0.0657,-0.0661,-0.0586,-0.0659,-0.0589,-0.0527,-0.0542,-0.0534,-0.0528,-0.0562,-0.056,-0.0579,-0.0579,-0.0579,0,-0.0611,-0.0601,-0.0618,-0.0602,-0.0595,-0.0615,-0.0592,-0.0584,-0.0591,-0.0584,-0.0605,-0.0599,-0.0615,-0.0582,-0.0548,-0.0559,-0.0594,-0.0584,-0.0528,-0.0523,-0.0519,-0.0555,-0.0554,-0.0574,-0.0574,-0.0575,-0.0575,0,-0.0574,-0.0563,-0.0552,-0.0539,-0.0527,-0.051,-0.0504,-0.0487,-0.0492,-0.0492,-0.0467,-0.0479,-0.0484,-0.0469,-0.0486,-0.0448,-0.0492,-0.0516,-0.0571,-0.0502,-0.0545,-0.0545,-0.0565,-0.0567,-0.0569,-0.0571,0,0,-0.0557,-0.0534,-0.053,-0.0514,-0.0494,-0.0482,-0.0438,-0.0413,-0.0392,-0.0384,-0.0363,-0.0336,-0.036,-0.0363,-0.0379,-0.0374,-0.0359,-0.0424,-0.0428,-0.0468,-0.0413,-0.039,-0.039,-0.0382,-0.0382,-0.0382,-0.0455,0,-0.0527,-0.0489,-0.048,-0.0432,-0.0412,-0.0403,-0.0363,-0.0339,-0.0327,-0.0308,-0.0307,-0.0296,-0.0314,-0.0316,-0.031,-0.0352,-0.0357,-0.0338,-0.0466,-0.047,-0.0466,-0.0387,-0.0274,-0.0325,-0.0456,-0.0457,-0.0457,0,-0.0497,-0.0476,-0.0431,-0.0388,-0.0378,-0.0347,-0.0301,-0.0267,-0.0237,-0.0232,-0.0221,-0.0239,-0.0222,-0.0256,-0.0292,-0.0286,-0.034,-0.0373,-0.0377,-0.0395,-0.0447,-0.0414,-0.0322,-0.0513,-0.0459,-0.0459,-0.0459,0,-0.0489,-0.0441,-0.0407,-0.0391,-0.0343,-0.0317,-0.0289,-0.0248,-0.0216,-0.0194,-0.018,-0.0183,-0.0187,-0.0238,-0.0289,-0.0304,-0.0345,-0.0383,-0.0416,-0.0417,-0.0364,-0.036,-0.0478,-0.0418,-0.0418,-0.0417,-0.0417,0,-0.0466,-0.0438,-0.0402,-0.0383,-0.0331,-0.0306,-0.0251,-0.0222,-0.0185,-0.0136,-0.015,-0.0113,-0.0183,-0.021,-0.0277,-0.0333,-0.0342,-0.0393,-0.0421,-0.0323,-0.0314,-0.0516,-0.0655,-0.042,-0.042,-0.0419,-0.0419,0,-0.0462,-0.0441,-0.0397,-0.0347,-0.0327,-0.0292,-0.0227,-0.0182,-0.0158,-0.0099,-0.0092,-0.0073,-0.0085,-0.0158,-0.0237,-0.031,-0.0456,-0.0402,-0.0285,-0.0297,-0.0503,-0.0639,-0.0788,-0.0869,-0.0457,-0.0456,-0.0456,0,-0.0457,-0.0435,-0.0375,-0.0339,-0.0314,-0.0262,-0.0212,-0.0172,-0.0123,-0.0054,-0.0018,-0.0012,0.0059,-0.0044,-0.0154,-0.0263,-0.0442,-0.0297,-0.029,-0.0485,-0.0659,-0.0745,-0.0809,-0.0189,-0.0187,-0.0185,-0.0183,0,-0.0436,-0.0417,-0.0376,-0.0306,-0.0252,-0.0189,-0.0124,-0.0079,-0.0017,0.0063,0.0174,0.0243,0.0177,0.0191,0.0023,-0.0086,-0.0408,-0.0261,-0.0481,-0.0466,-0.0549,-0.0647,-0.0207,-0.0165,-0.0167,-0.0168,-0.0169,-0.017,-0.0414,-0.0379,-0.0319,-0.0252,-0.0186,-0.0098,-0.0021,0.0077,0.0202,0.041,0.04,0.0656,0.0548,0.039,0.0128,-0.0241,-0.0312,-0.033,-0.0483,-0.0556,-0.0611,-0.0138,-0.0117,-0.0118,-0.012,-0.0121,-0.0122,0,-0.037,-0.0324,-0.0261,-0.0164,-0.0078,-0.0059,0.0064,0.0188,0.0392,0.0684,0.0871,0.1128,0.091,0.0584,0.0079,-0.0334,-0.051,-0.0594,-0.0698,-0.0758,-0.0332,-0.0296,-0.0288,-0.0288,-0.0288,-0.0288,-0.0287,-0.0287,-0.0335,-0.0266,-0.0233,-0.0082,-0.0008,0.014,0.0227,0.0441,0.0695,0.1197,0.1558,0.1785,0.1572,0.0404,-0.0421,-0.0634,-0.1002,-0.1041,-0.1289,-0.1014,-0.1001,-0.0989,-0.0986,-0.1123,-0.1124,-0.1581,-0.1586,-0.159]}],[{"header":{"parameterUnit":"m.s-1","parameterCategory":2,"la1":30.2991,"la2":30.254,"lo1":-89.0895,"lo2":-89.0444,"dy":0.0017,"dx":0.0017,"nx":28,"ny":28,"refTime":"2025-11-16T09:00:00:Z","depth":"2","parameterNumber":2,"parameterNumberName":"U-component_of_CURRENTS"},"data":[0,0,0,0,0,0,0,0,0,0,0,0,0,0,0,0,0,0,0,0,0,0,0,0,0,0,0,0,0,0,0,0,0,0,0,0,0,0,0,0,0,0,0,0,0,0,0,0,0,0,0,0,0,0,0,0,0,0,0.2258,0.2259,0,0.2363,0.2364,0.2366,0.2403,0.2402,0.2402,0.2402,0.2481,0.2483,0.2485,0,0,0,0,0,0,0,0,0,0,0,0,0,0.2129,0.2131,0.2258,0.2259,0.2261,0.2363,0.2365,0.2366,0.2403,0.2402,0.2402,0.2402,0.248,0.2483,0.2486,0,0,0,0,0,0,0,0,0,0,0,0,0,0.2204,0.2132,0.2258,0.2292,0.2296,0.2363,0.2365,0.2366,0.2403,0.2402,0.2402,0.2401,0.2479,0.2483,0.2486,0.2518,0,0,0.2497,0.2499,0,0,0,0,0,0,0,0,0.22,0.2209,0.2286,0.229,0.2295,0.237,0.2348,0.2416,0.2403,0.2362,0.2402,0.2401,0.2442,0.2449,0.2469,0.2522,0.2525,0.2497,0.25,0.2501,0.2502,0,0,0,0,0,0,0,0.2194,0.2204,0.2299,0.2287,0.2293,0.2316,0.2326,0.2361,0.2402,0.2365,0.2368,0.2381,0.2444,0.2465,0.2471,0.2526,0.2497,0.2501,0.2503,0.2504,0.2694,0.2696,0,0,0,0,0,0,0.2182,0.22,0.2296,0.2302,0.2246,0.2319,0.2329,0.2346,0.2403,0.2411,0.2382,0.2383,0.246,0.2467,0.2474,0.2578,0.2501,0.2505,0.2507,0.2691,0.2694,0.2697,0,0,0,0,0,0,0.2179,0.2189,0.2291,0.2253,0.2268,0.2321,0.2339,0.2348,0.2387,0.2416,0.2423,0.2414,0.2459,0.2469,0.2534,0.2578,0.2506,0.2509,0.2687,0.2692,0.2696,0.2745,0,0,0,0,0,0,0.2174,0.2188,0.2204,0.2253,0.227,0.2345,0.234,0.2351,0.2395,0.2398,0.2445,0.2451,0.246,0.2529,0.2537,0.2582,0.2512,0.2684,0.2689,0.2694,0.274,0.275,0.276,0,0,0,0,0,0.217,0.2193,0.2204,0.2216,0.2288,0.2346,0.2358,0.2392,0.2397,0.2424,0.2462,0.2451,0.2569,0.2534,0.2543,0.259,0.2681,0.2688,0.2694,0.2735,0.2748,0.2759,0,0,0,0,0,0,0.2148,0.22,0.2214,0.2252,0.2301,0.2353,0.2384,0.2406,0.2458,0.2465,0.2484,0.2494,0.2569,0.2579,0.254,0.2664,0.2625,0.2634,0.2653,0.2666,0.2676,0.2708,0.2515,0,0,0,0,0,0.215,0.2182,0.2233,0.2268,0.2293,0.2342,0.2373,0.2399,0.2447,0.247,0.2503,0.2548,0.2603,0.2632,0.2674,0.274,0.2776,0.278,0.279,0.2798,0.2834,0.2942,0.2965,0.2719,0.2718,0.2718,0,0,0.2151,0.2185,0.2203,0.2266,0.2306,0.236,0.236,0.2416,0.2466,0.247,0.2549,0.2583,0.263,0.2706,0.274,0.2719,0.2881,0.2806,0.2812,0.2845,0.2951,0.2975,0.2997,0.2723,0.2722,0.2721,0,0,0.217,0.2201,0.2235,0.228,0.2345,0.2383,0.2403,0.2468,0.2501,0.2572,0.26,0.2673,0.2732,0.2794,0.2827,0.2924,0.293,0.2928,0.3005,0.3108,0.3129,0.3149,0.3192,0.3215,0.2932,0.2932,0.2932,0,0.217,0.2219,0.2256,0.2306,0.2347,0.2397,0.2449,0.25,0.2578,0.2628,0.2601,0.2759,0.2784,0.2917,0.2949,0.2948,0.2988,0.2946,0.3121,0.3141,0.316,0.32,0.3225,0.2935,0.2935,0.2935,0.2934,0,0.2217,0.2262,0.229,0.2368,0.242,0.2474,0.2544,0.2608,0.2645,0.2701,0.2824,0.2872,0.297,0.2988,0.2996,0.3154,0.313,0.3117,0.3085,0.3188,0.3223,0.3248,0.294,0.2939,0.2938,0.2937,0,0,0.2197,0.23,0.231,0.2349,0.2455,0.2497,0.2602,0.2711,0.2785,0.2864,0.2965,0.3077,0.3112,0.3157,0.3185,0.3278,0.342,0.3259,0.3263,0.3293,0.3621,0.3312,0.3308,0.3438,0.3444,0.3448,0.3578,0,0.2223,0.2306,0.2361,0.245,0.2498,0.2584,0.2669,0.2777,0.2861,0.297,0.3068,0.3161,0.3173,0.3211,0.3322,0.3404,0.3495,0.3384,0.3528,0.3532,0.3237,0.3331,0.3114,0.3187,0.3602,0.3606,0.3609,0,0.2242,0.2299,0.2377,0.2482,0.2512,0.2573,0.2721,0.2808,0.2985,0.3053,0.3199,0.3255,0.3431,0.3388,0.3628,0.3558,0.361,0.3657,0.3662,0.3383,0.327,0.3162,0.3216,0.365,0.3647,0.3644,0.3641,0,0.219,0.2303,0.2359,0.2398,0.2532,0.2586,0.2667,0.2834,0.2919,0.3113,0.3183,0.3391,0.348,0.3624,0.3718,0.3693,0.3936,0.3901,0.3679,0.3656,0.3505,0.3456,0.4073,0.4073,0.4072,0.4072,0.4072,0,0.2182,0.2227,0.2332,0.2364,0.2436,0.2544,0.2645,0.2768,0.2938,0.305,0.3215,0.3331,0.3549,0.3688,0.3772,0.3788,0.3987,0.3717,0.3685,0.3504,0.3456,0.3888,0.3864,0.4077,0.4076,0.4075,0.4074,0,0.2113,0.2185,0.225,0.2374,0.2408,0.2458,0.2604,0.2683,0.2859,0.3009,0.3066,0.333,0.3501,0.3653,0.3874,0.3803,0.3872,0.3824,0.3549,0.3477,0.3511,0.349,0.3595,0.3586,0.3578,0.3571,0.3565,0,0.2088,0.2113,0.2223,0.2247,0.2297,0.2383,0.244,0.2625,0.2717,0.2997,0.3059,0.3269,0.3366,0.3533,0.3523,0.3558,0.3732,0.3297,0.318,0.3511,0.3472,0.3463,0.3452,0.3025,0.3015,0.3007,0.3001,0,0.2039,0.2073,0.2124,0.2172,0.2218,0.2274,0.2375,0.2435,0.2657,0.2781,0.2973,0.3061,0.3181,0.3116,0.3085,0.3082,0.3257,0.3118,0.3646,0.3103,0.2963,0.2925,0.2938,0.2931,0.2938,0.2943,0.2947,0.295,0.1995,0.2006,0.2064,0.2101,0.2134,0.2159,0.218,0.2291,0.2404,0.2518,0.2707,0.2742,0.279,0.2604,0.2579,0.257,0.2743,0.2653,0.2686,0.2725,0.2559,0.2404,0.2238,0.224,0.2243,0.2245,0.2247,0,0.1955,0.1973,0.1992,0.2026,0.2005,0.2063,0.2128,0.2115,0.218,0.2255,0.2307,0.2116,0.2053,0.219,0.2043,0.1952,0.2038,0.1911,0.2065,0.2131,0.2191,0.2007,0.1536,0.1534,0.1532,0.1531,0,0,0.1938,0.194,0.1947,0.1898,0.19,0.186,0.1869,0.1843,0.1876,0.1791,0.1779,0.1812,0.2017,0.1708,0.1676,0.1613,0.1866,0.1551,0.2117,0.2361,0.2419,0.2602,0.2386,0,0,0,0,0]},{"header":{"parameterUnit":"m.s-1","parameterCategory":2,"la1":30.2991,"la2":30.254,"lo1":-89.0895,"lo2":-89.0444,"dy":0.0017,"dx":0.0017,"nx":28,"ny":28,"refTime":"2025-11-16T09:00:00:Z","depth":"2","parameterNumber":3,"parameterNumberName":"V-component_of_CURRENTS"},"data":[0,0,0,0,0,0,0,0,0,0,0,0,0,0,0,0,0,0,0,0,0,0,0,0,0,0,0,0,0,0,0,0,0,0,0,0,0,0,0,0,0,0,0,0,0,0,0,0,0,0,0,0,0,0,0,0,0,0,0.0178,0.0177,0,0.0083,0.0081,0.008,0.0012,0.0011,0.0011,0.001,-0.0089,-0.0091,-0.0093,0,0,0,0,0,0,0,0,0,0,0,0,0,0.0243,0.0242,0.0178,0.0177,0.0176,0.0083,0.0081,0.008,0.0012,0.0011,0.0011,0.001,-0.0088,-0.0091,-0.0094,0,0,0,0,0,0,0,0,0,0,0,0,0,0.0187,0.0242,0.0178,0.0132,0.0127,0.0083,0.0081,0.008,0.0012,0.0011,0.001,0.001,-0.0087,-0.0091,-0.0094,-0.0102,0,0,-0.0104,-0.0106,0,0,0,0,0,0,0,0,0.019,0.0184,0.0139,0.0135,0.0129,0.006,0.0068,0.0019,0.0012,0.0054,0.001,0.001,-0.0038,-0.0046,-0.0064,-0.0106,-0.0111,-0.0105,-0.0107,-0.0108,-0.0109,0,0,0,0,0,0,0,0.0194,0.0187,0.0139,0.0138,0.0132,0.0096,0.0088,0.0058,0.0011,0.005,0.0045,0.0037,-0.0041,-0.0061,-0.0067,-0.0112,-0.0104,-0.0107,-0.0109,-0.0111,-0.0157,-0.0156,0,0,0,0,0,0,0.0212,0.0192,0.0142,0.0136,0.016,0.0096,0.0086,0.0081,0.0012,0.0001,0.0038,0.0034,-0.0055,-0.0063,-0.0071,-0.0043,-0.0108,-0.0111,-0.0113,-0.0158,-0.0157,-0.0156,0,0,0,0,0,0,0.0214,0.0209,0.0146,0.0162,0.0152,0.0096,0.009,0.008,0.0067,0.0003,-0.0009,0.0037,-0.0056,-0.0066,-0.0085,-0.0049,-0.0113,-0.0116,-0.0159,-0.0158,-0.0157,-0.0013,0,0,0,0,0,0,0.0217,0.021,0.0218,0.0164,0.0152,0.0143,0.0091,0.0079,0.0064,0.0058,-0.0001,-0.0012,-0.0057,-0.0079,-0.0088,-0.0054,-0.0118,-0.016,-0.0158,-0.0157,-0.0019,-0.0007,0.0003,0,0,0,0,0,0.0219,0.024,0.0219,0.0213,0.0163,0.0145,0.0136,0.0091,0.0065,0.0074,0.0028,-0.001,-0.0076,-0.0081,-0.0091,-0.0058,-0.0161,-0.0159,-0.0157,-0.0024,-0.0009,0.0003,0,0,0,0,0,0,0.0277,0.0233,0.021,0.0217,0.0192,0.0134,0.0137,0.0104,0.0073,0.0066,0.0001,-0.0011,-0.0018,-0.006,-0.0064,-0.0071,-0.0125,-0.0125,-0.002,-0.0007,0.0003,0.0049,-0.0121,0,0,0,0,0,0.0293,0.0293,0.0249,0.0256,0.0247,0.0194,0.0181,0.0152,0.0114,0.0099,0.0056,0.001,-0.002,-0.003,-0.007,-0.0065,-0.01,-0.0054,-0.0043,-0.0034,-0.0006,-0.0032,-0.0019,-0.015,-0.015,-0.015,0,0,0.0316,0.0294,0.0293,0.0268,0.0241,0.0254,0.0185,0.0177,0.0189,0.0095,0.0099,0.0044,-0.0014,-0.0014,-0.002,-0.0041,-0.0016,-0.0031,-0.0022,0.0001,-0.0028,-0.0015,-0.0004,-0.0149,-0.0149,-0.015,0,0,0.0373,0.0345,0.0368,0.0354,0.0327,0.0302,0.0308,0.0261,0.0242,0.0233,0.017,0.0147,0.0092,0.0071,0.0049,0.0098,0.0036,0.0074,0.0178,0.0153,0.0165,0.0174,0.0148,0.0154,0.0089,0.0089,0.0089,0,0.0406,0.0426,0.0375,0.0396,0.0403,0.0335,0.0375,0.0348,0.0302,0.0314,0.0254,0.02,0.014,0.0164,0.017,0.0128,0.0096,0.0139,0.0171,0.018,0.0187,0.0158,0.0163,0.0096,0.0095,0.0094,0.0094,0,0.0477,0.0496,0.0512,0.052,0.0524,0.0543,0.0508,0.0509,0.0473,0.0453,0.0452,0.0361,0.0338,0.0308,0.0249,0.0283,0.0237,0.0184,0.0148,0.021,0.0174,0.0176,0.0106,0.0104,0.0101,0.01,0,0,0.0546,0.0562,0.0567,0.0605,0.0592,0.0612,0.064,0.0666,0.0715,0.0641,0.0692,0.0612,0.0561,0.0532,0.0453,0.0426,0.0432,0.0336,0.0331,0.0329,0.0378,0.0231,0.0219,0.0381,0.0382,0.0383,0.0333,0,0.0623,0.07,0.0685,0.0776,0.082,0.0786,0.0831,0.0843,0.0832,0.0861,0.0773,0.0772,0.0647,0.0632,0.0589,0.0477,0.0446,0.0451,0.0302,0.0299,0.0175,0.0219,0.0216,0.016,0.0335,0.0335,0.0335,0,0.0701,0.0748,0.0846,0.0925,0.0944,0.0992,0.1076,0.1107,0.1123,0.1113,0.1095,0.1005,0.0961,0.0823,0.069,0.0697,0.0556,0.0453,0.0447,0.0268,0.0157,0.0123,0.0157,0.0339,0.0338,0.0338,0.0338,0,0.0785,0.0866,0.0958,0.0978,0.1048,0.1105,0.1153,0.1198,0.1256,0.1277,0.1303,0.1227,0.1183,0.1016,0.0769,0.0736,0.0605,0.0531,0.0272,0.026,0.0207,0.0187,0.0435,0.0435,0.0436,0.0436,0.0436,0,0.0873,0.0946,0.1011,0.1062,0.1199,0.1215,0.1361,0.1393,0.1458,0.155,0.1439,0.1466,0.1224,0.1091,0.0859,0.0577,0.0671,0.0307,0.0242,0.0252,0.0238,0.0348,0.0338,0.0434,0.0434,0.0435,0.0435,0,0.0942,0.0974,0.1092,0.1195,0.124,0.1341,0.1481,0.1583,0.1626,0.1733,0.1733,0.1663,0.1477,0.1202,0.0939,0.0691,0.0437,0.0305,0.0325,0.026,0.0091,0.009,0.0035,0.0029,0.0025,0.0021,0.0017,0,0.0985,0.105,0.1189,0.1266,0.1319,0.1463,0.1567,0.1661,0.1768,0.1848,0.1905,0.1763,0.1633,0.1195,0.0767,0.0342,0.0346,0.0068,-0.0019,0.0111,0.0053,0.0059,0.0063,-0.0018,-0.0022,-0.0024,-0.0026,0,0.1071,0.1111,0.1198,0.136,0.1486,0.164,0.1793,0.1904,0.201,0.2077,0.2141,0.2034,0.1576,0.1111,0.0509,0.0246,0.013,-0.0009,0.0165,0.0053,0.0047,-0.0006,0.0004,-0.005,-0.0048,-0.0046,-0.0045,-0.0044,0.112,0.1195,0.1305,0.146,0.1602,0.1793,0.1937,0.2082,0.2244,0.2248,0.2181,0.1939,0.1488,0.0605,0.0245,-0.0108,-0.0117,-0.0266,-0.0251,-0.0234,-0.0262,-0.0279,-0.0442,-0.0442,-0.0441,-0.0441,-0.0441,0,0.1172,0.1255,0.1401,0.1588,0.1753,0.1824,0.2064,0.2191,0.2368,0.2203,0.2096,0.1525,0.0983,0.0562,-0.0033,-0.0409,-0.0349,-0.0466,-0.0316,-0.0294,-0.0274,-0.0296,-0.0489,-0.0489,-0.0489,-0.0489,0,0,0.1197,0.1323,0.1404,0.1673,0.1812,0.2044,0.2185,0.2337,0.2313,0.2106,0.1826,0.137,0.0943,0.0482,0.0051,-0.0206,-0.0149,-0.024,-0.0183,0.0063,0.0089,-0.0164,-0.0177,0,0,0,0,0]}],[{"header":{"parameterUnit":"m.s-1","parameterCategory":2,"la1":30.2991,"la2":30.254,"lo1":-89.0895,"lo2":-89.0444,"dy":0.0017,"dx":0.0017,"nx":28,"ny":28,"refTime":"2025-11-16T09:00:00:Z","depth":"4","parameterNumber":2,"parameterNumberName":"U-component_of_CURRENTS"},"data":[0,0,0,0,0,0,0,0,0,0,0,0,0,0,0,0,0,0,0,0,0,0,0,0,0,0,0,0,0,0,0,0,0,0,0,0,0,0,0,0,0,0,0,0,0,0,0,0,0,0,0,0,0,0,0,0,0,0,0.0791,0.0792,0,0.0833,0.0834,0.0834,0.0874,0.0875,0.0876,0.0876,0.0935,0.0936,0.0937,0,0,0,0,0,0,0,0,0,0,0,0,0,0.0735,0.0735,0.0791,0.0792,0.0793,0.0833,0.0834,0.0834,0.0874,0.0875,0.0876,0.0877,0.0935,0.0936,0.0937,0,0,0,0,0,0,0,0,0,0,0,0,0,0.0764,0.0735,0.0791,0.082,0.0823,0.0833,0.0834,0.0834,0.0874,0.0875,0.0876,0.0877,0.0935,0.0936,0.0937,0.0923,0,0,0.0941,0.0942,0,0,0,0,0,0,0,0,0.0762,0.0766,0.0815,0.0818,0.0821,0.0852,0.0835,0.0866,0.0874,0.0852,0.0877,0.0878,0.091,0.0913,0.0915,0.0926,0.0928,0.0941,0.0942,0.0943,0.0943,0,0,0,0,0,0,0,0.076,0.0764,0.0806,0.0815,0.0819,0.0826,0.0832,0.0841,0.0873,0.0854,0.0858,0.0866,0.0911,0.0913,0.0917,0.0929,0.0941,0.0942,0.0943,0.0944,0.101,0.101,0,0,0,0,0,0,0.0759,0.0762,0.0804,0.0807,0.0797,0.0827,0.0832,0.0839,0.0872,0.0879,0.0865,0.0867,0.0911,0.0915,0.0919,0.0982,0.0943,0.0944,0.0945,0.1009,0.101,0.1011,0,0,0,0,0,0,0.0758,0.0762,0.0803,0.0788,0.0794,0.0827,0.0834,0.0839,0.0873,0.0881,0.0887,0.0896,0.0912,0.0917,0.0958,0.0982,0.0945,0.0946,0.1008,0.1009,0.101,0.1059,0,0,0,0,0,0,0.0756,0.0761,0.0774,0.0787,0.0794,0.0829,0.0833,0.0839,0.0875,0.088,0.0909,0.0914,0.0913,0.0956,0.0959,0.0983,0.0947,0.1006,0.1008,0.101,0.1056,0.1062,0.1067,0,0,0,0,0,0.0754,0.0767,0.0774,0.078,0.0807,0.083,0.0835,0.086,0.0876,0.0894,0.0918,0.0915,0.0969,0.0958,0.0961,0.0986,0.1005,0.1008,0.101,0.1054,0.1061,0.1067,0,0,0,0,0,0,0.075,0.0772,0.0781,0.0801,0.0823,0.0839,0.086,0.0876,0.0908,0.0921,0.0929,0.0936,0.0965,0.0975,0.0963,0.101,0.0985,0.0988,0.1018,0.1024,0.103,0.1067,0.0948,0,0,0,0,0,0.0753,0.0768,0.0791,0.0807,0.0823,0.0846,0.0862,0.0881,0.0906,0.0923,0.0948,0.0968,0.097,0.1001,0.0997,0.1041,0.1035,0.1058,0.1063,0.1068,0.11,0.1102,0.1111,0.1018,0.1018,0.1018,0,0,0.0749,0.077,0.0775,0.0808,0.0827,0.0852,0.0859,0.0894,0.0921,0.0923,0.0978,0.0977,0.0978,0.101,0.1028,0.1034,0.1087,0.1071,0.1075,0.1105,0.1105,0.1114,0.1123,0.1019,0.1019,0.1019,0,0,0.0755,0.0778,0.0794,0.0821,0.0862,0.0873,0.0891,0.0928,0.0956,0.0996,0.0994,0.1036,0.1048,0.1074,0.1079,0.1121,0.1092,0.1104,0.1192,0.1192,0.12,0.1207,0.1191,0.1196,0.1134,0.1134,0.1134,0,0.0754,0.078,0.0803,0.0836,0.0862,0.0887,0.0916,0.0941,0.099,0.1024,0.1022,0.1068,0.1083,0.1127,0.1152,0.1137,0.1117,0.1165,0.12,0.1207,0.1213,0.1195,0.12,0.1137,0.1136,0.1136,0.1136,0,0.077,0.0804,0.0822,0.0866,0.0895,0.0926,0.0964,0.1009,0.1041,0.1068,0.1121,0.1143,0.1185,0.1186,0.1191,0.1247,0.1208,0.1181,0.1184,0.1226,0.1203,0.1208,0.1141,0.114,0.1139,0.1138,0,0,0.0736,0.0813,0.0825,0.0859,0.0918,0.0943,0.0999,0.1055,0.1103,0.115,0.1214,0.1251,0.1279,0.129,0.1297,0.1333,0.1365,0.1298,0.1297,0.1284,0.1346,0.1283,0.1281,0.1329,0.1331,0.1332,0.1304,0,0.0744,0.0802,0.0843,0.0903,0.0935,0.0992,0.1042,0.1102,0.1146,0.1215,0.1262,0.1316,0.1307,0.1348,0.1373,0.1359,0.1382,0.1375,0.1308,0.1307,0.1248,0.1287,0.1338,0.1307,0.1308,0.1309,0.1309,0,0.0748,0.0792,0.0848,0.0936,0.0958,0.1006,0.1099,0.1146,0.1241,0.1287,0.1355,0.138,0.1462,0.1439,0.1451,0.1437,0.1414,0.1398,0.1395,0.1334,0.1254,0.1262,0.1317,0.1316,0.1316,0.1315,0.1315,0,0.0711,0.0798,0.0843,0.0874,0.0971,0.1031,0.1088,0.1181,0.124,0.1353,0.1398,0.1464,0.1509,0.1497,0.1487,0.1469,0.1471,0.1428,0.1345,0.1338,0.138,0.1373,0.1441,0.1441,0.1441,0.1441,0.1442,0,0.0701,0.0742,0.0843,0.0874,0.0952,0.1028,0.1118,0.1193,0.1304,0.1368,0.1438,0.1481,0.1527,0.153,0.1502,0.1438,0.1474,0.1379,0.134,0.1396,0.1392,0.1381,0.1374,0.144,0.1441,0.1441,0.1441,0,0.0654,0.0714,0.0779,0.0896,0.094,0.1001,0.1144,0.1199,0.1305,0.139,0.1441,0.1517,0.1514,0.152,0.1511,0.1449,0.1409,0.1376,0.1445,0.1405,0.1267,0.1263,0.1275,0.1273,0.1271,0.1269,0.1268,0,0.0628,0.0659,0.0784,0.083,0.0894,0.0996,0.1061,0.1199,0.1255,0.1385,0.1409,0.1473,0.1499,0.1412,0.1431,0.1376,0.1356,0.1331,0.1313,0.1296,0.1256,0.1256,0.1254,0.1265,0.1265,0.1264,0.1264,0,0.0579,0.0634,0.0686,0.0788,0.087,0.095,0.1057,0.1095,0.1233,0.1332,0.1371,0.1391,0.1376,0.1363,0.1344,0.1298,0.1352,0.1312,0.1315,0.1297,0.1284,0.1246,0.1247,0.1257,0.1258,0.1259,0.1259,0,0.0542,0.0564,0.0645,0.0733,0.0829,0.0891,0.0949,0.1024,0.1104,0.1253,0.1259,0.1298,0.1372,0.132,0.1293,0.1263,0.1232,0.1194,0.1202,0.1209,0.1203,0.1178,0.1104,0,0,0,0,0,0.0504,0.0524,0.0585,0.0676,0.077,0.0829,0.0941,0.0994,0.1115,0.1122,0.1205,0.1198,0.1195,0.1208,0.1155,0.1231,0.1216,0.1166,0.1172,0.1222,0.123,0.1229,0,0,0,0,0,0,0.0476,0.052,0.0553,0.062,0.0667,0.0757,0.0821,0.0895,0.0908,0.1031,0.102,0.1134,0.1119,0.1201,0.1131,0.1137,0.112,0.1208,0.1206,0.1218,0.1225,0.1231,0.1232,0,0,0,0,0]},{"header":{"parameterUnit":"m.s-1","parameterCategory":2,"la1":30.2991,"la2":30.254,"lo1":-89.0895,"lo2":-89.0444,"dy":0.0017,"dx":0.0017,"nx":28,"ny":28,"refTime":"2025-11-16T09:00:00:Z","depth":"4","parameterNumber":3,"parameterNumberName":"V-component_of_CURRENTS"},"data":[0,0,0,0,0,0,0,0,0,0,0,0,0,0,0,0,0,0,0,0,0,0,0,0,0,0,0,0,0,0,0,0,0,0,0,0,0,0,0,0,0,0,0,0,0,0,0,0,0,0,0,0,0,0,0,0,0,0,0.0171,0.0171,0,0.0124,0.0124,0.0123,0.01,0.01,0.01,0.01,0.0018,0.0016,0.0013,0,0,0,0,0,0,0,0,0,0,0,0,0,0.0182,0.0182,0.0171,0.017,0.017,0.0124,0.0123,0.0123,0.01,0.01,0.01,0.01,0.0019,0.0016,0.0013,0,0,0,0,0,0,0,0,0,0,0,0,0,0.016,0.0182,0.0171,0.0153,0.0151,0.0124,0.0123,0.0123,0.01,0.01,0.01,0.01,0.0019,0.0016,0.0013,-0.001,0,0,0.0003,0.0001,0,0,0,0,0,0,0,0,0.0161,0.0159,0.0157,0.0155,0.0152,0.0119,0.0097,0.0077,0.01,0.0119,0.01,0.01,0.0049,0.0043,0.0033,-0.0014,-0.0017,0.0002,0.0,-0.0001,-0.0002,0,0,0,0,0,0,0,0.0163,0.0161,0.0152,0.0156,0.0153,0.0128,0.0125,0.0093,0.0083,0.0117,0.0115,0.0111,0.0047,0.0037,0.0031,-0.0018,0.0002,-0.0001,-0.0003,-0.0004,-0.0104,-0.0104,0,0,0,0,0,0,0.0173,0.0163,0.0153,0.015,0.0158,0.0128,0.0125,0.0129,0.0084,0.0077,0.0111,0.011,0.0042,0.0035,0.0028,-0.0013,-0.0001,-0.0004,-0.0006,-0.0103,-0.0104,-0.0104,0,0,0,0,0,0,0.0173,0.0173,0.0155,0.0155,0.0151,0.0128,0.0132,0.0128,0.0118,0.008,0.0073,0.0106,0.0042,0.0033,-0.0003,-0.0016,-0.0006,-0.0009,-0.0102,-0.0103,-0.0104,-0.0088,0,0,0,0,0,0,0.0174,0.0174,0.0178,0.0156,0.0152,0.0141,0.0132,0.0127,0.0115,0.0114,0.0072,0.0065,0.0042,0.0002,-0.0007,-0.002,-0.0012,-0.0101,-0.0103,-0.0104,-0.0088,-0.0088,-0.0089,0,0,0,0,0,0.0175,0.0182,0.0179,0.0177,0.016,0.0141,0.0136,0.0118,0.0115,0.011,0.008,0.0066,-0.0012,-0.0001,-0.0011,-0.0026,-0.0101,-0.0102,-0.0104,-0.0087,-0.0088,-0.0089,0,0,0,0,0,0,0.0186,0.0179,0.0176,0.018,0.0163,0.0137,0.0133,0.012,0.0093,0.0093,0.0057,0.0047,0.0014,-0.001,0.0002,-0.0058,-0.0058,-0.0062,-0.0043,-0.0044,-0.0044,-0.0046,-0.0014,0,0,0,0,0,0.0192,0.0198,0.0181,0.0183,0.0179,0.0157,0.0147,0.0135,0.0109,0.0098,0.0067,0.0033,-0.0,-0.0024,-0.0052,-0.009,-0.0116,-0.0106,-0.0106,-0.0107,-0.0115,-0.0171,-0.0177,-0.0109,-0.0109,-0.0109,0,0,0.0196,0.0194,0.0196,0.0186,0.0175,0.0163,0.0151,0.014,0.0123,0.0092,0.0061,0.0034,-0.0008,-0.0045,-0.0064,-0.0069,-0.0136,-0.0108,-0.0108,-0.0117,-0.0173,-0.018,-0.0186,-0.011,-0.011,-0.011,0,0,0.0204,0.0208,0.0213,0.0201,0.0188,0.0172,0.017,0.0144,0.0128,0.0095,0.0069,0.0028,-0.0017,-0.0059,-0.0084,-0.0108,-0.013,-0.0109,-0.0124,-0.0177,-0.0183,-0.0189,-0.0214,-0.0222,-0.0118,-0.0118,-0.0118,0,0.0208,0.0215,0.0209,0.0206,0.0196,0.0177,0.017,0.0148,0.011,0.0089,0.0089,0.0005,-0.0029,-0.009,-0.0098,-0.0111,-0.0131,-0.0115,-0.0178,-0.0184,-0.0191,-0.0215,-0.0224,-0.0117,-0.0117,-0.0118,-0.0118,0,0.0215,0.0218,0.0221,0.0213,0.0199,0.0192,0.0164,0.0144,0.0125,0.0096,0.0044,-0.0006,-0.0059,-0.0076,-0.0096,-0.0159,-0.0153,-0.0164,-0.0174,-0.0196,-0.022,-0.023,-0.0117,-0.0117,-0.0117,-0.0117,0,0,0.0227,0.0227,0.0227,0.0227,0.0204,0.0195,0.0166,0.0131,0.011,0.0066,0.0024,-0.0041,-0.0066,-0.0097,-0.0131,-0.0185,-0.0241,-0.0191,-0.0194,-0.0211,-0.0338,-0.0304,-0.0311,-0.0258,-0.026,-0.0262,-0.033,0,0.0233,0.0241,0.023,0.0224,0.0224,0.0195,0.0171,0.0134,0.0099,0.0055,-0.0009,-0.0052,-0.0074,-0.0097,-0.0157,-0.022,-0.0269,-0.022,-0.0318,-0.0321,-0.0285,-0.0323,-0.0269,-0.0338,-0.034,-0.0342,-0.0343,0,0.024,0.0246,0.0252,0.0237,0.0234,0.0225,0.0186,0.016,0.0091,0.0064,0.0001,-0.0043,-0.0131,-0.0139,-0.0268,-0.0231,-0.0284,-0.0331,-0.0335,-0.032,-0.0307,-0.0317,-0.0361,-0.036,-0.0358,-0.0357,-0.0356,0,0.026,0.0256,0.0267,0.0262,0.0243,0.0237,0.022,0.0167,0.0149,0.0071,0.0048,-0.0057,-0.0102,-0.0199,-0.029,-0.0283,-0.0421,-0.0425,-0.0444,-0.0441,-0.0456,-0.0449,-0.0518,-0.0518,-0.0518,-0.0518,-0.0518,0,0.0271,0.0276,0.0285,0.0292,0.0297,0.0269,0.026,0.0225,0.0178,0.0158,0.0062,0.0024,-0.0119,-0.0209,-0.0297,-0.0396,-0.0428,-0.0456,-0.0467,-0.0444,-0.0436,-0.0462,-0.0454,-0.052,-0.052,-0.0519,-0.0519,0,0.0287,0.0294,0.0309,0.0311,0.0314,0.0319,0.031,0.0296,0.025,0.0219,0.0198,0.008,-0.0041,-0.0174,-0.0332,-0.0388,-0.0497,-0.052,-0.0471,-0.0475,-0.0477,-0.0468,-0.0559,-0.0559,-0.0558,-0.0558,-0.0558,0,0.0295,0.0311,0.0338,0.0355,0.0361,0.0369,0.0371,0.034,0.033,0.026,0.0246,0.0126,0.0038,-0.0157,-0.0303,-0.0475,-0.049,-0.0536,-0.053,-0.0486,-0.0487,-0.0478,-0.047,-0.0557,-0.0557,-0.0557,-0.0557,0,0.0308,0.0326,0.0341,0.0389,0.041,0.042,0.0426,0.043,0.039,0.0358,0.0293,0.0175,0.0039,-0.0133,-0.0265,-0.0388,-0.051,-0.0533,-0.0535,-0.0529,-0.0485,-0.0484,-0.0477,-0.0556,-0.0556,-0.0556,-0.0556,0,0.0318,0.0333,0.037,0.0406,0.0441,0.0458,0.0455,0.0444,0.0434,0.0373,0.0357,0.0196,0.0104,-0.0087,-0.0212,-0.0333,-0.0362,-0.0387,-0.0397,-0.04,-0.0334,-0.0253,-0.0274,0,0,0,0,0,0.0324,0.0342,0.0379,0.0415,0.0454,0.0473,0.0483,0.0472,0.0455,0.0428,0.0397,0.0275,0.0076,-0.0029,-0.0142,-0.022,-0.0395,-0.0357,-0.043,-0.055,-0.0551,-0.0499,0,0,0,0,0,0,0.0323,0.0358,0.0377,0.0426,0.0451,0.0482,0.0491,0.0473,0.0454,0.0427,0.0318,0.027,0.0064,0.0149,-0.0136,-0.0178,-0.0234,-0.0455,-0.0457,-0.0549,-0.055,-0.0551,-0.0498,0,0,0,0,0]}]]